Year,Month,Day,Hour,Minute,Value (Times are PST for temperature in C)
2015,05,04,00,00,9.60
2015,05,04,00,01,9.50
2015,05,04,00,02,9.50
2015,05,04,00,03,9.40
2015,05,04,00,04,9.30
2015,05,04,00,05,9.30
2015,05,04,00,06,9.20
2015,05,04,00,07,9.20
2015,05,04,00,08,9.10
2015,05,04,00,09,9.10
2015,05,04,00,10,9.10
2015,05,04,00,11,9.00
2015,05,04,00,12,9.00
2015,05,04,00,13,8.90
2015,05,04,00,14,8.90
2015,05,04,00,15,8.90
2015,05,04,00,16,8.90
2015,05,04,00,17,8.90
2015,05,04,00,18,9.00
2015,05,04,00,19,9.00
2015,05,04,00,20,9.00
2015,05,04,00,21,8.90
2015,05,04,00,22,8.90
2015,05,04,00,23,8.90
2015,05,04,00,24,8.90
2015,05,04,00,25,8.90
2015,05,04,00,26,8.90
2015,05,04,00,27,8.90
2015,05,04,00,28,8.90
2015,05,04,00,29,8.80
2015,05,04,00,30,8.80
2015,05,04,00,31,8.80
2015,05,04,00,32,8.90
2015,05,04,00,33,8.90
2015,05,04,00,34,8.90
2015,05,04,00,35,8.90
2015,05,04,00,36,9.00
2015,05,04,00,37,9.00
2015,05,04,00,38,9.00
2015,05,04,00,39,9.00
2015,05,04,00,40,9.00
2015,05,04,00,41,9.00
2015,05,04,00,42,9.10
2015,05,04,00,43,9.10
2015,05,04,00,44,9.10
2015,05,04,00,45,9.10
2015,05,04,00,46,9.20
2015,05,04,00,47,9.20
2015,05,04,00,48,9.20
2015,05,04,00,49,9.20
2015,05,04,00,50,9.20
2015,05,04,00,51,9.20
2015,05,04,00,52,9.20
2015,05,04,00,53,9.20
2015,05,04,00,54,9.20
2015,05,04,00,55,9.20
2015,05,04,00,56,9.20
2015,05,04,00,57,9.20
2015,05,04,00,58,9.10
2015,05,04,00,59,9.10
2015,05,04,01,00,9.10
2015,05,04,01,01,9.00
2015,05,04,01,02,9.00
2015,05,04,01,03,8.90
2015,05,04,01,04,8.90
2015,05,04,01,05,8.90
2015,05,04,01,06,8.80
2015,05,04,01,07,8.80
2015,05,04,01,08,8.80
2015,05,04,01,09,8.80
2015,05,04,01,10,8.70
2015,05,04,01,11,8.70
2015,05,04,01,12,8.70
2015,05,04,01,13,8.70
2015,05,04,01,14,8.70
2015,05,04,01,15,8.70
2015,05,04,01,16,8.80
2015,05,04,01,17,8.80
2015,05,04,01,18,8.80
2015,05,04,01,19,8.80
2015,05,04,01,20,8.80
2015,05,04,01,21,8.80
2015,05,04,01,22,8.80
2015,05,04,01,23,8.80
2015,05,04,01,24,8.70
2015,05,04,01,25,8.70
2015,05,04,01,26,8.70
2015,05,04,01,27,8.70
2015,05,04,01,28,8.60
2015,05,04,01,29,8.60
2015,05,04,01,30,8.60
2015,05,04,01,31,8.60
2015,05,04,01,32,8.60
2015,05,04,01,33,8.50
2015,05,04,01,34,8.50
2015,05,04,01,35,8.50
2015,05,04,01,36,8.60
2015,05,04,01,37,8.60
2015,05,04,01,38,8.60
2015,05,04,01,39,8.60
2015,05,04,01,40,8.60
2015,05,04,01,41,8.60
2015,05,04,01,42,8.60
2015,05,04,01,43,8.60
2015,05,04,01,44,8.60
2015,05,04,01,45,8.60
2015,05,04,01,46,8.60
2015,05,04,01,47,8.60
2015,05,04,01,48,8.60
2015,05,04,01,49,8.50
2015,05,04,01,50,8.50
2015,05,04,01,51,8.50
2015,05,04,01,52,8.50
2015,05,04,01,53,8.50
2015,05,04,01,54,8.40
2015,05,04,01,55,8.40
2015,05,04,01,56,8.40
2015,05,04,01,57,8.40
2015,05,04,01,58,8.40
2015,05,04,01,59,8.40
2015,05,04,02,00,8.40
2015,05,04,02,01,8.40
2015,05,04,02,02,8.40
2015,05,04,02,03,8.40
2015,05,04,02,04,8.40
2015,05,04,02,05,8.40
2015,05,04,02,06,8.40
2015,05,04,02,07,8.40
2015,05,04,02,08,8.40
2015,05,04,02,09,8.40
2015,05,04,02,10,8.40
2015,05,04,02,11,8.40
2015,05,04,02,12,8.40
2015,05,04,02,13,8.40
2015,05,04,02,14,8.50
2015,05,04,02,15,8.50
2015,05,04,02,16,8.50
2015,05,04,02,17,8.50
2015,05,04,02,18,8.50
2015,05,04,02,19,8.50
2015,05,04,02,20,8.50
2015,05,04,02,21,8.60
2015,05,04,02,22,8.60
2015,05,04,02,23,8.70
2015,05,04,02,24,8.70
2015,05,04,02,25,8.70
2015,05,04,02,26,8.70
2015,05,04,02,27,8.80
2015,05,04,02,28,8.80
2015,05,04,02,29,8.80
2015,05,04,02,30,8.80
2015,05,04,02,31,8.80
2015,05,04,02,32,8.70
2015,05,04,02,33,8.70
2015,05,04,02,34,8.70
2015,05,04,02,35,8.60
2015,05,04,02,36,8.60
2015,05,04,02,37,8.60
2015,05,04,02,38,8.70
2015,05,04,02,39,8.70
2015,05,04,02,40,8.70
2015,05,04,02,41,8.70
2015,05,04,02,42,8.80
2015,05,04,02,43,8.80
2015,05,04,02,44,8.90
2015,05,04,02,45,9.10
2015,05,04,02,46,9.20
2015,05,04,02,47,9.30
2015,05,04,02,48,9.30
2015,05,04,02,49,9.40
2015,05,04,02,50,9.50
2015,05,04,02,51,9.60
2015,05,04,02,52,9.70
2015,05,04,02,53,9.70
2015,05,04,02,54,9.70
2015,05,04,02,55,9.70
2015,05,04,02,56,9.70
2015,05,04,02,57,9.70
2015,05,04,02,58,9.70
2015,05,04,02,59,9.70
2015,05,04,03,00,9.70
2015,05,04,03,01,9.60
2015,05,04,03,02,9.60
2015,05,04,03,03,9.50
2015,05,04,03,04,9.50
2015,05,04,03,05,9.40
2015,05,04,03,06,9.30
2015,05,04,03,07,9.20
2015,05,04,03,08,9.20
2015,05,04,03,09,9.10
2015,05,04,03,10,9.10
2015,05,04,03,11,9.10
2015,05,04,03,12,9.00
2015,05,04,03,13,9.00
2015,05,04,03,14,9.00
2015,05,04,03,15,8.90
2015,05,04,03,16,8.90
2015,05,04,03,17,8.90
2015,05,04,03,18,8.90
2015,05,04,03,19,8.90
2015,05,04,03,20,8.90
2015,05,04,03,21,8.90
2015,05,04,03,22,8.90
2015,05,04,03,23,8.90
2015,05,04,03,24,8.90
2015,05,04,03,25,8.90
2015,05,04,03,26,8.90
2015,05,04,03,27,8.80
2015,05,04,03,28,8.80
2015,05,04,03,29,8.80
2015,05,04,03,30,8.80
2015,05,04,03,31,8.80
2015,05,04,03,32,8.80
2015,05,04,03,33,8.80
2015,05,04,03,34,8.80
2015,05,04,03,35,8.80
2015,05,04,03,36,8.80
2015,05,04,03,37,8.80
2015,05,04,03,38,8.80
2015,05,04,03,39,8.80
2015,05,04,03,40,8.80
2015,05,04,03,41,8.80
2015,05,04,03,42,8.80
2015,05,04,03,43,8.80
2015,05,04,03,44,8.80
2015,05,04,03,45,8.70
2015,05,04,03,46,8.70
2015,05,04,03,47,8.70
2015,05,04,03,48,8.60
2015,05,04,03,49,8.60
2015,05,04,03,50,8.50
2015,05,04,03,51,8.50
2015,05,04,03,52,8.40
2015,05,04,03,53,8.40
2015,05,04,03,54,8.40
2015,05,04,03,55,8.30
2015,05,04,03,56,8.30
2015,05,04,03,57,8.30
2015,05,04,03,58,8.30
2015,05,04,03,59,8.30
2015,05,04,04,00,8.20
2015,05,04,04,01,8.20
2015,05,04,04,02,8.20
2015,05,04,04,03,8.20
2015,05,04,04,04,8.20
2015,05,04,04,05,8.10
2015,05,04,04,06,8.10
2015,05,04,04,07,8.10
2015,05,04,04,08,8.10
2015,05,04,04,09,8.10
2015,05,04,04,10,8.00
2015,05,04,04,11,8.00
2015,05,04,04,12,8.00
2015,05,04,04,13,8.00
2015,05,04,04,14,7.90
2015,05,04,04,15,7.90
2015,05,04,04,16,7.90
2015,05,04,04,17,7.90
2015,05,04,04,18,7.90
2015,05,04,04,19,7.90
2015,05,04,04,20,7.90
2015,05,04,04,21,7.90
2015,05,04,04,22,7.90
2015,05,04,04,23,7.90
2015,05,04,04,24,7.90
2015,05,04,04,25,7.90
2015,05,04,04,26,7.90
2015,05,04,04,27,7.90
2015,05,04,04,28,7.80
2015,05,04,04,29,7.80
2015,05,04,04,30,7.80
2015,05,04,04,31,7.80
2015,05,04,04,32,7.80
2015,05,04,04,33,7.80
2015,05,04,04,34,7.80
2015,05,04,04,35,7.80
2015,05,04,04,36,7.80
2015,05,04,04,37,7.80
2015,05,04,04,38,7.80
2015,05,04,04,39,7.80
2015,05,04,04,40,7.80
2015,05,04,04,41,7.80
2015,05,04,04,42,7.80
2015,05,04,04,43,7.80
2015,05,04,04,44,7.80
2015,05,04,04,45,7.70
2015,05,04,04,46,7.70
2015,05,04,04,47,7.70
2015,05,04,04,48,7.70
2015,05,04,04,49,7.70
2015,05,04,04,50,7.70
2015,05,04,04,51,7.70
2015,05,04,04,52,7.70
2015,05,04,04,53,7.70
2015,05,04,04,54,7.70
2015,05,04,04,55,7.70
2015,05,04,04,56,7.70
2015,05,04,04,57,7.60
2015,05,04,04,58,7.60
2015,05,04,04,59,7.60
2015,05,04,05,00,7.60
2015,05,04,05,01,7.60
2015,05,04,05,02,7.60
2015,05,04,05,03,7.60
2015,05,04,05,04,7.60
2015,05,04,05,05,7.60
2015,05,04,05,06,7.60
2015,05,04,05,07,7.60
2015,05,04,05,08,7.60
2015,05,04,05,09,7.60
2015,05,04,05,10,7.60
2015,05,04,05,11,7.60
2015,05,04,05,12,7.60
2015,05,04,05,13,7.60
2015,05,04,05,14,7.60
2015,05,04,05,15,7.60
2015,05,04,05,16,7.60
2015,05,04,05,17,7.60
2015,05,04,05,18,7.60
2015,05,04,05,19,7.60
2015,05,04,05,20,7.60
2015,05,04,05,21,7.60
2015,05,04,05,22,7.60
2015,05,04,05,23,7.70
2015,05,04,05,24,7.70
2015,05,04,05,25,7.70
2015,05,04,05,26,7.70
2015,05,04,05,27,7.70
2015,05,04,05,28,7.70
2015,05,04,05,29,7.70
2015,05,04,05,30,7.80
2015,05,04,05,31,7.80
2015,05,04,05,32,7.80
2015,05,04,05,33,7.80
2015,05,04,05,34,7.80
2015,05,04,05,35,7.80
2015,05,04,05,36,7.80
2015,05,04,05,37,7.80
2015,05,04,05,38,7.80
2015,05,04,05,39,7.70
2015,05,04,05,40,7.70
2015,05,04,05,41,7.70
2015,05,04,05,42,7.70
2015,05,04,05,43,7.70
2015,05,04,05,44,7.70
2015,05,04,05,45,7.70
2015,05,04,05,46,7.70
2015,05,04,05,47,7.70
2015,05,04,05,48,7.70
2015,05,04,05,49,7.70
2015,05,04,05,50,7.70
2015,05,04,05,51,7.70
2015,05,04,05,52,7.60
2015,05,04,05,53,7.60
2015,05,04,05,54,7.60
2015,05,04,05,55,7.60
2015,05,04,05,56,7.60
2015,05,04,05,57,7.60
2015,05,04,05,58,7.60
2015,05,04,05,59,7.60
2015,05,04,06,00,7.60
2015,05,04,06,01,7.60
2015,05,04,06,02,7.60
2015,05,04,06,03,7.60
2015,05,04,06,04,7.60
2015,05,04,06,05,7.60
2015,05,04,06,06,7.60
2015,05,04,06,07,7.60
2015,05,04,06,08,7.60
2015,05,04,06,09,7.60
2015,05,04,06,10,7.60
2015,05,04,06,11,7.60
2015,05,04,06,12,7.60
2015,05,04,06,13,7.60
2015,05,04,06,14,7.60
2015,05,04,06,15,7.60
2015,05,04,06,16,7.60
2015,05,04,06,17,7.60
2015,05,04,06,18,7.60
2015,05,04,06,19,7.60
2015,05,04,06,20,7.60
2015,05,04,06,21,7.60
2015,05,04,06,22,7.60
2015,05,04,06,23,7.60
2015,05,04,06,24,7.60
2015,05,04,06,25,7.60
2015,05,04,06,26,7.60
2015,05,04,06,27,7.60
2015,05,04,06,28,7.60
2015,05,04,06,29,7.60
2015,05,04,06,30,7.70
2015,05,04,06,31,7.70
2015,05,04,06,32,7.70
2015,05,04,06,33,7.70
2015,05,04,06,34,7.70
2015,05,04,06,35,7.70
2015,05,04,06,36,7.70
2015,05,04,06,37,7.70
2015,05,04,06,38,7.70
2015,05,04,06,39,7.70
2015,05,04,06,40,7.70
2015,05,04,06,41,7.70
2015,05,04,06,42,7.70
2015,05,04,06,43,7.80
2015,05,04,06,44,7.80
2015,05,04,06,45,7.90
2015,05,04,06,46,8.00
2015,05,04,06,47,8.00
2015,05,04,06,48,8.00
2015,05,04,06,49,8.10
2015,05,04,06,50,8.10
2015,05,04,06,51,8.10
2015,05,04,06,52,8.10
2015,05,04,06,53,8.10
2015,05,04,06,54,8.10
2015,05,04,06,55,8.10
2015,05,04,06,56,8.10
2015,05,04,06,57,8.10
2015,05,04,06,58,8.10
2015,05,04,06,59,8.10
2015,05,04,07,00,8.10
2015,05,04,07,01,8.10
2015,05,04,07,02,8.10
2015,05,04,07,03,8.10
2015,05,04,07,04,8.10
2015,05,04,07,05,8.10
2015,05,04,07,06,8.10
2015,05,04,07,07,8.20
2015,05,04,07,08,8.20
2015,05,04,07,09,8.20
2015,05,04,07,10,8.20
2015,05,04,07,11,8.20
2015,05,04,07,12,8.30
2015,05,04,07,13,8.30
2015,05,04,07,14,8.40
2015,05,04,07,15,8.40
2015,05,04,07,16,8.40
2015,05,04,07,17,8.40
2015,05,04,07,18,8.40
2015,05,04,07,19,8.50
2015,05,04,07,20,8.50
2015,05,04,07,21,8.50
2015,05,04,07,22,8.50
2015,05,04,07,23,8.60
2015,05,04,07,24,8.60
2015,05,04,07,25,8.60
2015,05,04,07,26,8.60
2015,05,04,07,27,8.60
2015,05,04,07,28,8.70
2015,05,04,07,29,8.70
2015,05,04,07,30,8.70
2015,05,04,07,31,8.70
2015,05,04,07,32,8.70
2015,05,04,07,33,8.70
2015,05,04,07,34,8.70
2015,05,04,07,35,8.70
2015,05,04,07,36,8.70
2015,05,04,07,37,8.80
2015,05,04,07,38,8.80
2015,05,04,07,39,8.80
2015,05,04,07,40,8.80
2015,05,04,07,41,8.80
2015,05,04,07,42,8.80
2015,05,04,07,43,8.80
2015,05,04,07,44,8.80
2015,05,04,07,45,8.80
2015,05,04,07,46,8.80
2015,05,04,07,47,8.80
2015,05,04,07,48,8.80
2015,05,04,07,49,8.90
2015,05,04,07,50,8.90
2015,05,04,07,51,9.00
2015,05,04,07,52,9.00
2015,05,04,07,53,9.00
2015,05,04,07,54,9.00
2015,05,04,07,55,9.00
2015,05,04,07,56,9.00
2015,05,04,07,57,9.00
2015,05,04,07,58,9.00
2015,05,04,07,59,9.10
2015,05,04,08,00,9.10
2015,05,04,08,01,9.10
2015,05,04,08,02,9.20
2015,05,04,08,03,9.20
2015,05,04,08,04,9.20
2015,05,04,08,05,9.20
2015,05,04,08,06,9.30
2015,05,04,08,07,9.30
2015,05,04,08,08,9.30
2015,05,04,08,09,9.30
2015,05,04,08,10,9.40
2015,05,04,08,11,9.40
2015,05,04,08,12,9.40
2015,05,04,08,13,9.50
2015,05,04,08,14,9.50
2015,05,04,08,15,9.60
2015,05,04,08,16,9.60
2015,05,04,08,17,9.60
2015,05,04,08,18,9.60
2015,05,04,08,19,9.60
2015,05,04,08,20,9.60
2015,05,04,08,21,9.60
2015,05,04,08,22,9.70
2015,05,04,08,23,9.70
2015,05,04,08,24,9.70
2015,05,04,08,25,9.80
2015,05,04,08,26,9.80
2015,05,04,08,27,9.90
2015,05,04,08,28,9.90
2015,05,04,08,29,10.00
2015,05,04,08,30,10.00
2015,05,04,08,31,10.10
2015,05,04,08,32,10.20
2015,05,04,08,33,10.30
2015,05,04,08,34,10.30
2015,05,04,08,35,10.40
2015,05,04,08,36,10.40
2015,05,04,08,37,10.50
2015,05,04,08,38,10.60
2015,05,04,08,39,10.70
2015,05,04,08,40,10.70
2015,05,04,08,41,10.80
2015,05,04,08,42,10.90
2015,05,04,08,43,11.00
2015,05,04,08,44,11.10
2015,05,04,08,45,11.30
2015,05,04,08,46,11.40
2015,05,04,08,47,11.50
2015,05,04,08,48,11.60
2015,05,04,08,49,11.70
2015,05,04,08,50,11.80
2015,05,04,08,51,11.90
2015,05,04,08,52,12.00
2015,05,04,08,53,12.10
2015,05,04,08,54,12.20
2015,05,04,08,55,12.20
2015,05,04,08,56,12.20
2015,05,04,08,57,12.20
2015,05,04,08,58,12.20
2015,05,04,08,59,12.10
2015,05,04,09,00,12.10
2015,05,04,09,01,12.10
2015,05,04,09,02,12.10
2015,05,04,09,03,12.00
2015,05,04,09,04,11.90
2015,05,04,09,05,11.90
2015,05,04,09,06,11.90
2015,05,04,09,07,11.90
2015,05,04,09,08,11.90
2015,05,04,09,09,12.00
2015,05,04,09,10,12.00
2015,05,04,09,11,12.10
2015,05,04,09,12,12.10
2015,05,04,09,13,12.20
2015,05,04,09,14,12.20
2015,05,04,09,15,12.30
2015,05,04,09,16,12.40
2015,05,04,09,17,12.50
2015,05,04,09,18,12.60
2015,05,04,09,19,12.70
2015,05,04,09,20,12.70
2015,05,04,09,21,12.80
2015,05,04,09,22,12.80
2015,05,04,09,23,12.90
2015,05,04,09,24,13.00
2015,05,04,09,25,13.10
2015,05,04,09,26,13.10
2015,05,04,09,27,13.20
2015,05,04,09,28,13.20
2015,05,04,09,29,13.30
2015,05,04,09,30,13.30
2015,05,04,09,31,13.30
2015,05,04,09,32,13.40
2015,05,04,09,33,13.40
2015,05,04,09,34,13.40
2015,05,04,09,35,13.50
2015,05,04,09,36,13.50
2015,05,04,09,37,13.50
2015,05,04,09,38,13.60
2015,05,04,09,39,13.60
2015,05,04,09,40,13.60
2015,05,04,09,41,13.50
2015,05,04,09,42,13.50
2015,05,04,09,43,13.60
2015,05,04,09,44,13.60
2015,05,04,09,45,13.70
2015,05,04,09,46,13.80
2015,05,04,09,47,13.80
2015,05,04,09,48,13.80
2015,05,04,09,49,13.90
2015,05,04,09,50,13.90
2015,05,04,09,51,14.00
2015,05,04,09,52,14.10
2015,05,04,09,53,14.10
2015,05,04,09,54,14.10
2015,05,04,09,55,14.10
2015,05,04,09,56,14.10
2015,05,04,09,57,14.10
2015,05,04,09,58,14.10
2015,05,04,09,59,14.10
2015,05,04,10,00,14.00
2015,05,04,10,01,14.00
2015,05,04,10,02,13.90
2015,05,04,10,03,13.90
2015,05,04,10,04,13.90
2015,05,04,10,05,13.90
2015,05,04,10,06,14.00
2015,05,04,10,07,14.00
2015,05,04,10,08,14.00
2015,05,04,10,09,13.90
2015,05,04,10,10,13.90
2015,05,04,10,11,13.90
2015,05,04,10,12,13.80
2015,05,04,10,13,13.80
2015,05,04,10,14,13.80
2015,05,04,10,15,13.80
2015,05,04,10,16,13.80
2015,05,04,10,17,13.90
2015,05,04,10,18,13.90
2015,05,04,10,19,13.90
2015,05,04,10,20,14.00
2015,05,04,10,21,14.00
2015,05,04,10,22,14.00
2015,05,04,10,23,14.00
2015,05,04,10,24,14.00
2015,05,04,10,25,13.90
2015,05,04,10,26,13.90
2015,05,04,10,27,13.80
2015,05,04,10,28,13.70
2015,05,04,10,29,13.60
2015,05,04,10,30,13.60
2015,05,04,10,31,13.60
2015,05,04,10,32,13.60
2015,05,04,10,33,13.60
2015,05,04,10,34,13.60
2015,05,04,10,35,13.60
2015,05,04,10,36,13.60
2015,05,04,10,37,13.70
2015,05,04,10,38,13.70
2015,05,04,10,39,13.80
2015,05,04,10,40,13.90
2015,05,04,10,41,14.00
2015,05,04,10,42,14.10
2015,05,04,10,43,14.20
2015,05,04,10,44,14.20
2015,05,04,10,45,14.20
2015,05,04,10,46,14.20
2015,05,04,10,47,14.20
2015,05,04,10,48,14.20
2015,05,04,10,49,14.30
2015,05,04,10,50,14.30
2015,05,04,10,51,14.30
2015,05,04,10,52,14.30
2015,05,04,10,53,14.30
2015,05,04,10,54,14.40
2015,05,04,10,55,14.50
2015,05,04,10,56,14.60
2015,05,04,10,57,14.60
2015,05,04,10,58,14.70
2015,05,04,10,59,14.60
2015,05,04,11,00,14.60
2015,05,04,11,01,14.60
2015,05,04,11,02,14.60
2015,05,04,11,03,14.60
2015,05,04,11,04,14.60
2015,05,04,11,05,14.60
2015,05,04,11,06,14.50
2015,05,04,11,07,14.40
2015,05,04,11,08,14.30
2015,05,04,11,09,14.30
2015,05,04,11,10,14.30
2015,05,04,11,11,14.40
2015,05,04,11,12,14.40
2015,05,04,11,13,14.40
2015,05,04,11,14,14.50
2015,05,04,11,15,14.50
2015,05,04,11,16,14.40
2015,05,04,11,17,14.40
2015,05,04,11,18,14.30
2015,05,04,11,19,14.20
2015,05,04,11,20,14.10
2015,05,04,11,21,14.00
2015,05,04,11,22,13.90
2015,05,04,11,23,13.80
2015,05,04,11,24,13.80
2015,05,04,11,25,13.70
2015,05,04,11,26,13.60
2015,05,04,11,27,13.50
2015,05,04,11,28,13.50
2015,05,04,11,29,13.50
2015,05,04,11,30,13.50
2015,05,04,11,31,13.60
2015,05,04,11,32,13.60
2015,05,04,11,33,13.60
2015,05,04,11,34,13.60
2015,05,04,11,35,13.60
2015,05,04,11,36,13.60
2015,05,04,11,37,13.60
2015,05,04,11,38,13.60
2015,05,04,11,39,13.60
2015,05,04,11,40,13.60
2015,05,04,11,41,13.60
2015,05,04,11,42,13.60
2015,05,04,11,43,13.60
2015,05,04,11,44,13.70
2015,05,04,11,45,13.70
2015,05,04,11,46,13.70
2015,05,04,11,47,13.70
2015,05,04,11,48,13.60
2015,05,04,11,49,13.60
2015,05,04,11,50,13.70
2015,05,04,11,51,13.70
2015,05,04,11,52,13.80
2015,05,04,11,53,13.80
2015,05,04,11,54,13.80
2015,05,04,11,55,13.80
2015,05,04,11,56,13.70
2015,05,04,11,57,13.60
2015,05,04,11,58,13.50
2015,05,04,11,59,13.50
2015,05,04,12,00,13.50
2015,05,04,12,01,13.50
2015,05,04,12,02,13.50
2015,05,04,12,03,13.60
2015,05,04,12,04,13.60
2015,05,04,12,05,13.70
2015,05,04,12,06,13.60
2015,05,04,12,07,13.60
2015,05,04,12,08,13.60
2015,05,04,12,09,13.70
2015,05,04,12,10,13.80
2015,05,04,12,11,13.80
2015,05,04,12,12,13.90
2015,05,04,12,13,13.90
2015,05,04,12,14,13.90
2015,05,04,12,15,13.90
2015,05,04,12,16,13.90
2015,05,04,12,17,13.90
2015,05,04,12,18,13.80
2015,05,04,12,19,13.70
2015,05,04,12,20,13.60
2015,05,04,12,21,13.50
2015,05,04,12,22,13.40
2015,05,04,12,23,13.40
2015,05,04,12,24,13.40
2015,05,04,12,25,13.40
2015,05,04,12,26,13.40
2015,05,04,12,27,13.30
2015,05,04,12,28,13.30
2015,05,04,12,29,13.20
2015,05,04,12,30,13.10
2015,05,04,12,31,13.20
2015,05,04,12,32,13.30
2015,05,04,12,33,13.40
2015,05,04,12,34,13.50
2015,05,04,12,35,13.60
2015,05,04,12,36,13.70
2015,05,04,12,37,13.80
2015,05,04,12,38,13.80
2015,05,04,12,39,13.90
2015,05,04,12,40,13.90
2015,05,04,12,41,13.90
2015,05,04,12,42,13.90
2015,05,04,12,43,13.80
2015,05,04,12,44,13.80
2015,05,04,12,45,13.80
2015,05,04,12,46,13.80
2015,05,04,12,47,13.90
2015,05,04,12,48,14.10
2015,05,04,12,49,14.30
2015,05,04,12,50,14.50
2015,05,04,12,51,14.70
2015,05,04,12,52,15.00
2015,05,04,12,53,15.30
2015,05,04,12,54,15.40
2015,05,04,12,55,15.50
2015,05,04,12,56,15.60
2015,05,04,12,57,15.60
2015,05,04,12,58,15.60
2015,05,04,12,59,15.60
2015,05,04,13,00,15.50
2015,05,04,13,01,15.40
2015,05,04,13,02,15.50
2015,05,04,13,03,15.60
2015,05,04,13,04,15.70
2015,05,04,13,05,15.70
2015,05,04,13,06,15.60
2015,05,04,13,07,15.50
2015,05,04,13,08,15.40
2015,05,04,13,09,15.20
2015,05,04,13,10,15.10
2015,05,04,13,11,14.90
2015,05,04,13,12,14.80
2015,05,04,13,13,14.80
2015,05,04,13,14,14.80
2015,05,04,13,15,14.80
2015,05,04,13,16,14.90
2015,05,04,13,17,14.90
2015,05,04,13,18,14.90
2015,05,04,13,19,15.00
2015,05,04,13,20,15.10
2015,05,04,13,21,15.10
2015,05,04,13,22,15.10
2015,05,04,13,23,15.10
2015,05,04,13,24,15.10
2015,05,04,13,25,15.00
2015,05,04,13,26,14.90
2015,05,04,13,27,14.90
2015,05,04,13,28,15.00
2015,05,04,13,29,15.00
2015,05,04,13,30,15.00
2015,05,04,13,31,14.90
2015,05,04,13,32,14.90
2015,05,04,13,33,14.80
2015,05,04,13,34,14.80
2015,05,04,13,35,14.70
2015,05,04,13,36,14.60
2015,05,04,13,37,14.60
2015,05,04,13,38,14.60
2015,05,04,13,39,14.60
2015,05,04,13,40,14.60
2015,05,04,13,41,14.60
2015,05,04,13,42,14.60
2015,05,04,13,43,14.50
2015,05,04,13,44,14.50
2015,05,04,13,45,14.40
2015,05,04,13,46,14.40
2015,05,04,13,47,14.30
2015,05,04,13,48,14.30
2015,05,04,13,49,14.20
2015,05,04,13,50,14.20
2015,05,04,13,51,14.30
2015,05,04,13,52,14.30
2015,05,04,13,53,14.30
2015,05,04,13,54,14.30
2015,05,04,13,55,14.30
2015,05,04,13,56,14.30
2015,05,04,13,57,14.30
2015,05,04,13,58,14.30
2015,05,04,13,59,14.30
2015,05,04,14,00,14.30
2015,05,04,14,01,14.40
2015,05,04,14,02,14.50
2015,05,04,14,03,14.60
2015,05,04,14,04,14.70
2015,05,04,14,05,14.70
2015,05,04,14,06,14.70
2015,05,04,14,07,14.70
2015,05,04,14,08,14.80
2015,05,04,14,09,14.90
2015,05,04,14,10,15.00
2015,05,04,14,11,15.00
2015,05,04,14,12,15.00
2015,05,04,14,13,15.00
2015,05,04,14,14,15.00
2015,05,04,14,15,15.10
2015,05,04,14,16,15.10
2015,05,04,14,17,15.00
2015,05,04,14,18,15.00
2015,05,04,14,19,15.00
2015,05,04,14,20,15.00
2015,05,04,14,21,15.00
2015,05,04,14,22,15.10
2015,05,04,14,23,15.10
2015,05,04,14,24,15.20
2015,05,04,14,25,15.20
2015,05,04,14,26,15.20
2015,05,04,14,27,15.20
2015,05,04,14,28,15.20
2015,05,04,14,29,15.30
2015,05,04,14,30,15.40
2015,05,04,14,31,15.20
2015,05,04,14,32,15.10
2015,05,04,14,33,14.90
2015,05,04,14,34,14.80
2015,05,04,14,35,14.80
2015,05,04,14,36,14.80
2015,05,04,14,37,14.80
2015,05,04,14,38,14.70
2015,05,04,14,39,14.70
2015,05,04,14,40,14.70
2015,05,04,14,41,14.50
2015,05,04,14,42,14.40
2015,05,04,14,43,14.30
2015,05,04,14,44,14.20
2015,05,04,14,45,14.00
2015,05,04,14,46,13.90
2015,05,04,14,47,13.80
2015,05,04,14,48,13.70
2015,05,04,14,49,13.60
2015,05,04,14,50,13.60
2015,05,04,14,51,13.60
2015,05,04,14,52,13.60
2015,05,04,14,53,13.60
2015,05,04,14,54,13.70
2015,05,04,14,55,13.80
2015,05,04,14,56,13.80
2015,05,04,14,57,13.80
2015,05,04,14,58,13.90
2015,05,04,14,59,13.90
2015,05,04,15,00,13.90
2015,05,04,15,01,13.90
2015,05,04,15,02,13.90
2015,05,04,15,03,14.00
2015,05,04,15,04,14.10
2015,05,04,15,05,14.20
2015,05,04,15,06,14.40
2015,05,04,15,07,14.50
2015,05,04,15,08,14.60
2015,05,04,15,09,14.70
2015,05,04,15,10,14.70
2015,05,04,15,11,14.80
2015,05,04,15,12,14.80
2015,05,04,15,13,14.90
2015,05,04,15,14,14.90
2015,05,04,15,15,14.80
2015,05,04,15,16,14.80
2015,05,04,15,17,14.90
2015,05,04,15,18,15.00
2015,05,04,15,19,15.10
2015,05,04,15,20,15.10
2015,05,04,15,21,15.10
2015,05,04,15,22,15.00
2015,05,04,15,23,14.90
2015,05,04,15,24,14.90
2015,05,04,15,25,14.80
2015,05,04,15,26,14.70
2015,05,04,15,27,14.50
2015,05,04,15,28,14.30
2015,05,04,15,29,14.20
2015,05,04,15,30,14.10
2015,05,04,15,31,14.00
2015,05,04,15,32,14.00
2015,05,04,15,33,14.00
2015,05,04,15,34,14.00
2015,05,04,15,35,13.90
2015,05,04,15,36,13.90
2015,05,04,15,37,13.80
2015,05,04,15,38,13.80
2015,05,04,15,39,13.80
2015,05,04,15,40,13.70
2015,05,04,15,41,13.70
2015,05,04,15,42,13.70
2015,05,04,15,43,13.70
2015,05,04,15,44,13.70
2015,05,04,15,45,13.70
2015,05,04,15,46,13.70
2015,05,04,15,47,13.80
2015,05,04,15,48,13.90
2015,05,04,15,49,14.00
2015,05,04,15,50,14.10
2015,05,04,15,51,14.20
2015,05,04,15,52,14.20
2015,05,04,15,53,14.30
2015,05,04,15,54,14.30
2015,05,04,15,55,14.30
2015,05,04,15,56,14.20
2015,05,04,15,57,14.10
2015,05,04,15,58,14.00
2015,05,04,15,59,14.00
2015,05,04,16,00,13.90
2015,05,04,16,01,13.80
2015,05,04,16,02,13.70
2015,05,04,16,03,13.70
2015,05,04,16,04,13.80
2015,05,04,16,05,13.80
2015,05,04,16,06,13.90
2015,05,04,16,07,13.90
2015,05,04,16,08,13.90
2015,05,04,16,09,13.90
2015,05,04,16,10,13.80
2015,05,04,16,11,13.70
2015,05,04,16,12,13.50
2015,05,04,16,13,13.30
2015,05,04,16,14,13.20
2015,05,04,16,15,13.10
2015,05,04,16,16,13.00
2015,05,04,16,17,13.00
2015,05,04,16,18,12.90
2015,05,04,16,19,13.00
2015,05,04,16,20,13.00
2015,05,04,16,21,13.00
2015,05,04,16,22,13.00
2015,05,04,16,23,13.00
2015,05,04,16,24,13.10
2015,05,04,16,25,13.10
2015,05,04,16,26,13.30
2015,05,04,16,27,13.40
2015,05,04,16,28,13.50
2015,05,04,16,29,13.70
2015,05,04,16,30,13.80
2015,05,04,16,31,13.80
2015,05,04,16,32,13.90
2015,05,04,16,33,13.90
2015,05,04,16,34,14.00
2015,05,04,16,35,14.00
2015,05,04,16,36,14.10
2015,05,04,16,37,14.20
2015,05,04,16,38,14.30
2015,05,04,16,39,14.40
2015,05,04,16,40,14.50
2015,05,04,16,41,14.50
2015,05,04,16,42,14.60
2015,05,04,16,43,14.60
2015,05,04,16,44,14.70
2015,05,04,16,45,14.90
2015,05,04,16,46,15.00
2015,05,04,16,47,15.10
2015,05,04,16,48,15.10
2015,05,04,16,49,15.20
2015,05,04,16,50,15.20
2015,05,04,16,51,15.10
2015,05,04,16,52,15.10
2015,05,04,16,53,15.10
2015,05,04,16,54,15.10
2015,05,04,16,55,15.00
2015,05,04,16,56,15.10
2015,05,04,16,57,15.00
2015,05,04,16,58,15.00
2015,05,04,16,59,15.10
2015,05,04,17,00,15.10
2015,05,04,17,01,15.00
2015,05,04,17,02,14.90
2015,05,04,17,03,14.90
2015,05,04,17,04,14.70
2015,05,04,17,05,14.50
2015,05,04,17,06,14.40
2015,05,04,17,07,14.30
2015,05,04,17,08,14.20
2015,05,04,17,09,14.20
2015,05,04,17,10,14.20
2015,05,04,17,11,14.20
2015,05,04,17,12,14.20
2015,05,04,17,13,14.30
2015,05,04,17,14,14.40
2015,05,04,17,15,14.40
2015,05,04,17,16,14.50
2015,05,04,17,17,14.60
2015,05,04,17,18,14.70
2015,05,04,17,19,14.80
2015,05,04,17,20,14.80
2015,05,04,17,21,14.80
2015,05,04,17,22,14.80
2015,05,04,17,23,14.80
2015,05,04,17,24,14.70
2015,05,04,17,25,14.60
2015,05,04,17,26,14.30
2015,05,04,17,27,14.10
2015,05,04,17,28,14.00
2015,05,04,17,29,13.80
2015,05,04,17,30,13.70
2015,05,04,17,31,13.60
2015,05,04,17,32,13.60
2015,05,04,17,33,13.60
2015,05,04,17,34,13.70
2015,05,04,17,35,13.80
2015,05,04,17,36,13.90
2015,05,04,17,37,14.00
2015,05,04,17,38,14.10
2015,05,04,17,39,14.20
2015,05,04,17,40,14.30
2015,05,04,17,41,14.30